Hourly Data Report for October 25, 2014

All times are specified in Local Standard Time (LST). Add 1 hour to adjust for Daylight Saving Time where and when it is observed.

KUGAARUK CLIMATE
NUNAVUT

68°32'15.060" N
89°47'47.020" W
15.80 m
2303094
71407
NBB

Download Data

Hourly Data (October 2014)
Hourly Data Report for October 25, 2014
Temp Definition
°C
Dew Point Temp Definition
°C
Rel Hum Definition
%
Wind Dir Definition
10's deg

Wind Spd Definition
km/h
Visibility Definition
km
Stn Press Definition
kPa
Hmdx Definition


Wind Chill Definition


Weather Definition


TIME
00:00 -16.9 -19.0 84 3 15   102.02   -25 LegendNANA
01:00 -16.2 -17.9 86 5 15   101.97   -24 LegendNANA
02:00 -15.8 -17.5 86 6 15   101.97   -24 LegendNANA
03:00 -15.2 -17.0 86 6 12   101.98   -22 LegendNANA
04:00 -16.2 -18.1 85 7 7   101.96   -21 LegendNANA
05:00 -17.3 -19.2 85 4 5   101.96   -21 LegendNANA
06:00 -17.3 -19.4 84 5 5   101.92   -21 LegendNANA
07:00 -15.4 -17.4 85 7 10   101.88   -22 LegendNANA
08:00 -15.5 -17.6 84 5 12   101.86   -23 LegendNANA
09:00 -15.8 -18.4 80 4 11   101.84   -23 LegendNANA
10:00 -15.1 -17.6 81 4 9   101.83   -21 LegendNANA
11:00 -13.7 -16.4 80 4 8   101.81   -19 LegendNANA
12:00 -13.0 -15.5 81 2 6   101.80   -17 LegendNANA
13:00 -11.9 -14.1 83 6 10   101.81   -18 LegendNANA
14:00 -11.4 -13.7 83 9 14   101.79   -18 LegendNANA
15:00 -11.5 -13.5 85 7 10   101.78   -17 LegendNANA
16:00 -11.2 -13.2 85 10 14   101.72   -18 LegendNANA
17:00 -10.9 -12.9 86 9 13   101.69   -17 LegendNANA
18:00 -11.0 -12.8 87 11 16   101.65   -18 LegendNANA
19:00 -10.9 -12.9 86 9 10   101.64   -16 LegendNANA
20:00 -10.7 -12.6 86 7 4   101.59   -13 LegendNANA
21:00 -10.2 -12.0 87 10 9   101.56   -15 LegendNANA
22:00 -11.0 -12.9 86 12 13   101.51   -17 LegendNANA
23:00 -10.8 -13.0 84 13 27   101.44   -20 LegendNANA

Notes on Data Quality.

Legend

  • E = Estimated
  • M = Missing
  • NA = Not Available
  • ‡ = Partner data that is not subject to review by the National Climate Archives
Date modified: